TimeCST,TemperatureF,Dew PointF,Humidity,Sea Level PressureIn,VisibilityMPH,Wind Direction,Wind SpeedMPH,Gust SpeedMPH,PrecipitationIn,Events,Conditions,WindDirDegrees,DateUTC
12:47 AM,59.0,59.0,100,30.04,10.0,WSW,11.5,17.3,0.00,Rain,Light Rain,250,2013-02-11 06:47:00
12:56 AM,59.0,59.0,100,30.09,10.0,West,9.2,17.3,0.00,,Overcast,260,2013-02-11 06:56:00
1:09 AM,59.0,57.2,94,30.04,10.0,SW,9.2,-,0.00,Rain,Light Rain,230,2013-02-11 07:09:00
1:13 AM,57.2,57.2,100,30.04,10.0,SW,6.9,-,0.00,,Mostly Cloudy,230,2013-02-11 07:13:00
1:56 AM,57.9,56.8,96,30.09,10.0,WSW,6.9,-,0.00,,Mostly Cloudy,240,2013-02-11 07:56:00
2:56 AM,55.9,55.9,100,30.08,10.0,SSW,4.6,-,N/A,,Mostly Cloudy,210,2013-02-11 08:56:00
3:56 AM,54.9,54.9,100,30.08,8.0,Calm,Calm,-,N/A,,Mostly Cloudy,0,2013-02-11 09:56:00
4:12 AM,55.4,55.4,100,30.06,1.8,Calm,Calm,-,N/A,,Mostly Cloudy,0,2013-02-11 10:12:00
4:14 AM,53.6,53.6,100,30.06,1.0,Calm,Calm,-,N/A,,Mostly Cloudy,0,2013-02-11 10:14:00
4:21 AM,55.4,55.4,100,30.06,0.8,Calm,Calm,-,N/A,,Mostly Cloudy,0,2013-02-11 10:21:00
4:24 AM,55.4,55.4,100,30.06,1.5,Calm,Calm,-,N/A,,Mostly Cloudy,0,2013-02-11 10:24:00
4:26 AM,55.4,55.4,100,30.06,3.0,Calm,Calm,-,N/A,,Scattered Clouds,0,2013-02-11 10:26:00
4:56 AM,54.9,54.9,100,30.11,10.0,Calm,Calm,-,N/A,,Mostly Cloudy,0,2013-02-11 10:56:00
5:56 AM,54.9,54.0,97,30.14,10.0,Calm,Calm,-,N/A,,Mostly Cloudy,0,2013-02-11 11:56:00
6:56 AM,52.9,46.9,80,30.15,10.0,Calm,Calm,-,N/A,,Clear,0,2013-02-11 12:56:00
7:56 AM,52.0,45.9,80,30.18,10.0,Calm,Calm,-,N/A,,Clear,0,2013-02-11 13:56:00
8:56 AM,50.9,46.9,86,30.19,10.0,Calm,Calm,-,N/A,,Clear,0,2013-02-11 14:56:00
9:56 AM,52.0,46.9,83,30.22,10.0,WSW,4.6,-,N/A,,Clear,250,2013-02-11 15:56:00
10:56 AM,52.0,43.9,74,30.23,10.0,Calm,Calm,-,N/A,,Clear,0,2013-02-11 16:56:00
11:56 AM,50.9,39.9,66,30.21,10.0,Calm,Calm,-,N/A,,Clear,0,2013-02-11 17:56:00
12:56 PM,50.0,38.8,66,30.20,10.0,NW,6.9,-,N/A,,Clear,320,2013-02-11 18:56:00
1:56 PM,50.0,36.0,59,30.18,10.0,Calm,Calm,-,N/A,,Clear,0,2013-02-11 19:56:00
2:56 PM,50.9,34.0,52,30.17,10.0,Calm,Calm,-,N/A,,Clear,0,2013-02-11 20:56:00
3:56 PM,50.0,34.9,56,30.17,10.0,Calm,Calm,-,N/A,,Clear,0,2013-02-11 21:56:00
4:56 PM,47.8,34.9,61,30.16,10.0,Calm,Calm,-,N/A,,Clear,0,2013-02-11 22:56:00
5:56 PM,45.0,36.9,73,30.17,10.0,Calm,Calm,-,N/A,,Clear,0,2013-02-11 23:56:00
6:56 PM,45.0,38.8,79,30.17,10.0,Calm,Calm,-,N/A,,Clear,0,2013-02-12 00:56:00
7:56 PM,43.9,39.9,86,30.17,10.0,Calm,Calm,-,N/A,,Clear,0,2013-02-12 01:56:00
8:56 PM,43.0,38.8,85,30.19,10.0,Calm,Calm,-,N/A,,Clear,0,2013-02-12 02:56:00
9:56 PM,41.9,38.8,89,30.19,10.0,Calm,Calm,-,N/A,,Clear,0,2013-02-12 03:56:00
10:56 PM,41.9,38.8,89,30.19,10.0,Calm,Calm,-,N/A,,Partly Cloudy,0,2013-02-12 04:56:00
11:56 PM,41.9,38.8,89,30.19,10.0,Calm,Calm,-,N/A,,Clear,0,2013-02-12 05:56:00